Location: Newark
(11.2914°S, 14.4718°E)
Time: 16:01:29
(UTC+00:00)

Vanguard 2 - Visible Passes

Search period start: 18 September 2019 00:00
Search period end: 28 September 2019 00:00
Orbit: 554 x 2937 km, 32.9° (Epoch: 18 September)

Date Brightness Start Highest point End Pass type
(mag) Time Alt. Az. Time Alt. Az. Time Alt. Az.
18 Sep 10.8 17:39:48 10° SW 17:50:11 30° SSE 18:02:28 13° ESE visible
18 Sep 10.4 19:49:58 10° SW 20:03:52 52° SSE 20:03:52 52° SSE visible
18 Sep 11.5 22:01:12 10° WSW 22:05:16 22° WSW 22:05:16 22° WSW visible
19 Sep 10.7 17:58:10 10° SW 18:09:14 33° SSE 18:19:15 19° ESE visible
19 Sep 10.4 20:08:02 10° SW 20:20:39 58° S 20:20:39 58° S visible
19 Sep 11.7 22:19:41 10° WSW 22:22:03 17° WSW 22:22:03 17° WSW visible
20 Sep 10.6 18:16:18 10° SW 18:28:08 38° SSE 18:36:04 27° ESE visible
20 Sep 10.4 20:26:05 10° SW 20:37:28 58° SSW 20:37:28 58° SSW visible
20 Sep 11.9 22:38:27 10° WSW 22:38:53 11° WSW 22:38:53 11° WSW visible
21 Sep 10.4 18:34:19 10° SW 18:46:52 46° SSE 18:52:56 36° ESE visible
21 Sep 10.5 20:44:13 10° WSW 20:54:21 52° WSW 20:54:21 52° WSW visible
22 Sep 10.2 18:52:17 10° SW 19:05:25 55° SSE 19:09:52 47° ESE visible
22 Sep 10.8 21:02:30 10° WSW 21:11:17 44° WSW 21:11:17 44° WSW visible
23 Sep 10.5 17:01:34 10° SW 17:10:49 31° SSE 17:23:57 10° E visible
23 Sep 10.0 19:10:13 10° SW 19:23:49 67° SSE 19:26:51 60° ESE visible
23 Sep 11.0 21:21:00 10° WSW 21:28:16 34° W 21:28:16 34° W visible
24 Sep 10.4 17:19:30 10° SW 17:29:27 37° SSE 17:42:29 13° E visible
24 Sep 9.9 19:28:12 10° SW 19:42:08 81° SE 19:43:54 75° E visible
24 Sep 11.3 21:39:48 10° WSW 21:45:20 26° W 21:45:20 26° W visible
25 Sep 10.2 17:37:21 10° SW 17:47:54 46° SSE 17:59:35 19° E visible
25 Sep 10.0 19:46:19 10° WSW 20:00:25 83° NW 20:01:01 82° N visible
25 Sep 11.6 21:59:05 10° W 22:02:27 18° W 22:02:27 18° W visible
26 Sep 10.0 17:55:10 10° SW 18:06:14 57° SSE 18:16:46 25° E visible
26 Sep 10.2 20:04:35 10° WSW 20:18:12 67° NW 20:18:12 67° NW visible
26 Sep 11.8 22:18:59 10° W 22:19:38 11° W 22:19:38 11° W visible
27 Sep 9.8 18:13:03 10° SW 18:24:28 71° SSE 18:34:00 31° ENE visible
27 Sep 10.5 20:23:08 10° WSW 20:35:27 52° NW 20:35:27 52° NW visible
